DECAYED

OBJECT XC, 62296 (Decayed)

Orbit data source: Space-Track

You're viewing an Uncataloged Satellite

Recently launched and/or uncataloged satellites may have evolving metadata. Metadata may include but not limited to: Owner, Maufacturer, Bus, Motor, and Mission.

OBJECT XC, 62296 was a Japanese satellite in LEO that was delivered to and deployed from the ISS. Unknown objects in Earth's orbit typically refer to objects detected orbiting the Earth but have not yet been identified or cataloged. These objects could be anything from previously untracked satellites, spent rocket stages, debris from satellite collisions, or even natural meteoroids temporarily captured by Earth's gravity. This object's orbit decayed before it could be identified.

Not visible in the next 10 days
Identifier
62296, 1998-067XC
Orbit
Decayed
Country
Flag of JPJP / JPN
Related business
None
Manufacturer
Unknown
Mission
Decayed Amateur Technology
Bus & Motor
Unknown
Mass
Unknown
Launch date (UTC)
1998-11-20 (28 years ago)
Launch vehicle
FALCON 9
Launch site
Tyuratam Missile And Space Complex (TTMTR)
Object type
Unknown
Shape & HBR
Box, 0.1 m
Radar Cross Section
0.015 m², Medium (>0.1 m² and < 1m²)

Expand to show TLE details & history
Last TLE update: 1 year ago

TLE from 1 year ago
0 OBJECT XC
1 62296U 98067XC  25090.03349811  .03094512  11817-4  16357-2 0  9990
2 62296  51.6131 318.8850 0009413 255.6018 104.3956 16.19221691 17522
Epoch: 2025-03-31T00:48Z
TLE epoch observation values (Epoch: 2025-03-31T00:48:14.236Z)
Latitude
0.00003°
Longitude
118.1705°
Altitude
223.976 km
Speed
7.773 km/s
True Right ascension
21h 15m 32s
True Declination
0° 00' 00"
Sunlit
Object was in daylight at epoch
Visualization orbit readout
Latitude
Unknown
Longitude
Unknown
Altitude
Unknown
Speed
Unknown
Apparent Right ascension
Unknown
Apparent Declination
Unknown
Sunlit
N/A
Visualization observer readout
Local Sidereal Time
12:00:57
Azimuth
Unknown
Elevation
Unknown
Doppler factor
Unknown
Orbital elements
Apogee altitude
228.406 km
Perigee altitude
215.98 km
Semi-major axis
6,600.33 km
Eccentricity
0.00094
Inclination
51.6131°
RAAN
318.885°
Arg. of periapsis
255.6018°
True anomaly
104.50005°
Mean anomaly
104.3956°
Eccentric anomaly
104.44783°
Mean motion
4.04757 °/min
Orbital period
88.94 mins
BSTAR
0.0016357
Loading maneuver chart data...
Computing Atmospheric mass density...

Documentation

Showing up to 5 results
|